Location: Columbus
(35.2256°N, 82.1549°W)
Time: 12:08:07
(UTC-05:00)

Hubble Space Telescope - Visible Passes

Search period start: 27 November 2021 00:00
Search period end: 07 December 2021 00:00
Orbit: 535 x 538 km, 28.5° (Epoch: 26 November)

Date Brightness Start Highest point End Pass type
(mag) Time Alt. Az. Time Alt. Az. Time Alt. Az.
27 Nov 3.6 04:31:46 15° SE 04:31:46 15° SE 04:32:48 10° ESE visible
27 Nov 2.2 06:07:05 12° WSW 06:10:23 31° S 06:14:04 10° ESE visible
28 Nov 3.9 04:21:25 12° ESE 04:21:25 12° ESE 04:21:46 10° ESE visible
28 Nov 2.1 05:56:43 17° SW 05:59:11 32° S 06:02:52 10° ESE visible
29 Nov 2.1 05:46:19 23° SW 05:47:59 31° S 05:51:38 10° ESE visible
30 Nov 2.0 05:35:52 27° SSW 05:36:47 30° S 05:40:24 10° ESE visible
01 Dec 2.1 05:25:24 28° SSW 05:25:34 28° S 05:29:08 10° SE visible
02 Dec 2.4 05:14:56 25° S 05:14:56 25° S 05:17:49 10° SE visible
02 Dec 3.2 06:53:12 10° SW 06:54:56 12° SSW 06:56:40 10° S visible
03 Dec 2.8 05:04:28 20° SSE 05:04:28 20° SSE 05:06:28 10° SE visible
04 Dec 3.3 04:54:01 15° SSE 04:54:01 15° SSE 04:55:03 10° SE visible
